Flight Track Log - Related Links

Times and Time Zones

All times are in EDT time to prevent confusion due to time zone crossing. See the UCA4768 flight status page for this flight to view local times or setup timezone preferences in your user account.

Time Position Orientation Groundspeed Altitude Reporting Facility
EDT Latitude Longitude Course Direction KTS MPH feet Rate Location/Type
Sun 10:11:15 AM 42.9496 -83.7237 50° Northeast  Level FlightAware Approximate
Sun 10:12:15 AM 42.9082 -83.6718 North  Level FlightAware Approximate
Sun 10:13:03 AM 42.9903 -83.6572 132° Southeast 184 212 5,000  Level Cleveland Center
Sun 10:14:47 AM 42.9200 -83.5517 137° Southeast 240 276 5,000 407 Level Cleveland Center
Sun 10:16:00 AM 42.8636 -83.4811 140° Southeast 211 243 6,200 1,034 Climbing Cleveland Center
Sun 10:16:43 AM 42.8353 -83.4486 136° Southeast 198 228 7,000 436 Climbing Cleveland Center
Sun 10:17:50 AM 42.7847 -83.3811 137° Southeast 230 265 7,000  Level Cleveland Center
Sun 10:18:44 AM 42.7403 -83.3253 136° Southeast 239 275 7,000  Level Cleveland Center
Sun 10:20:04 AM 42.6756 -83.2406 137° Southeast 243 280 7,000  Level Cleveland Center
Sun 10:20:53 AM 42.6369 -83.1911 138° Southeast 242 278 7,000  Level Cleveland Center
Sun 10:21:59 AM 42.5803 -83.1211 138° Southeast 243 280 7,000  Level Cleveland Center
Sun 10:23:00 AM 42.5294 -83.0597 135° Southeast 242 278 7,000  Level Cleveland Center
Sun 10:23:55 AM 42.4847 -82.9989 137° Southeast 241 277 7,000  Level Cleveland Center
Sun 10:24:56 AM 42.4361 -82.9381 135° Southeast 242 278 7,000  Level Cleveland Center
Sun 10:25:51 AM 42.3936 -82.8803 138° Southeast 243 280 7,000  Level Cleveland Center
Sun 10:27:17 AM 42.3264 -82.7992 137° Southeast 248 285 7,000  Level Cleveland Center
Sun 10:28:17 AM 42.2775 -82.7383 136° Southeast 248 285 7,000  Level Cleveland Center
Sun 10:29:17 AM 42.2264 -82.6722 137° Southeast 248 285 7,000 50 Level Cleveland Center
Sun 10:30:17 AM 42.1756 -82.6089 137° Southeast 248 285 7,100 50 Climbing Cleveland Center
Sun 10:31:17 AM 42.1206 -82.5400 140° Southeast 248 285 7,100 -53 Level Cleveland Center
Sun 10:32:10 AM 42.0756 -82.4883 135° Southeast 245 282 7,000 -56 Descending Cleveland Center
Sun 10:33:05 AM 42.0325 -82.4311 137° Southeast 243 280 7,000  Level Cleveland Center
Sun 10:33:59 AM 41.9836 -82.3708 139° Southeast 244 281 7,000 45 Level Cleveland Center
Sun 10:35:17 AM 41.9200 -82.2967 135° Southeast 238 274 7,100  Climbing Cleveland Center
Sun 10:36:17 AM 41.8731 -82.2339 142° Southeast 238 274 7,000 -58 Descending Cleveland Center
Sun 10:37:01 AM 41.8300 -82.1883 153° Southeast 248 285 7,000  Level Cleveland Center
Sun 10:38:02 AM 41.7700 -82.1478 147° Southeast 248 285 7,000  Level Cleveland Center
Sun 10:38:56 AM 41.7164 -82.1019 154° Southeast 249 287 7,000  Level Cleveland Center
Sun 10:39:57 AM 41.6544 -82.0617 152° Southeast 249 287 7,000  Level Cleveland Center
Sun 10:41:04 AM 41.5861 -82.0128 151° Southeast 250 288 7,000  Level Cleveland Center
Sun 10:42:10 AM 41.5181 -81.9614 167° South 251 289 7,000 -135 Level Cleveland Center
Sun 10:43:17 AM 41.4517 -81.9406 229° Southwest 260 299 6,700 -627 Descending Cleveland Center
Sun 10:44:24 AM 41.3942 -82.0281 231° Southwest 268 308 5,600 -992 Descending Cleveland Center
Sun 10:45:24 AM 41.3539 -82.0933 211° Southwest 231 266 4,600 -939 Descending Cleveland Center
Sun 10:46:19 AM 41.3139 -82.1258 146° Southeast 203 234 3,800 -857 Descending Cleveland Center
Sun 10:47:02 AM 41.2850 -82.1000 81° East 182 209 3,200 -466 Descending Cleveland Center
Sun 10:48:02 AM 41.2919 -82.0422 50° Northeast 164 189 3,000 -94 Descending Cleveland Center
Sun 10:49:09 AM 41.3217 -81.9958 49° Northeast 161 185 3,000 -375 Level Cleveland Center
Sun 10:50:10 AM 41.3514 -81.9497 47° Northeast 153 176 2,200 -689 Descending Cleveland Center
Sun 10:51:11 AM 41.3747 -81.9169 53° Northeast 119 137 1,600 -595 Descending Cleveland Center
Sun 10:52:11 AM 41.3917 -81.8867 53° Northeast 108 124 1,000 -600 Descending Cleveland Center

Login

Don't have an account? Register now (free) for customized features, flight alerts, and more!